QPF
0.00 0.00 0.00 0.00 0.00 0.00 0.00 0.00 0.00 0.00 0.00 0.00 0.00 0.00 0.00 0.00 0.00 0.01 0.01 0.01 0.01 0.01 0.00 0.01 0.01 0.01 0.00 0.00 0.00 0.00 0.00 0.01 0.02 0.02 0.01 0.01 0.01 0.01 0.01 0.01 0.01 0.01 0.02 0.02
0.00 0.00 0.00 0.00 0.00 0.00 0.00 0.00 0.00 0.01 0.01 0.00 0.00 0.00 0.00 0.01 0.01 0.01 0.01 0.01 0.01 0.00 0.01 0.01 0.01 0.00 0.00 0.00 0.00 0.00 0.00 0.01 0.01 0.02 0.02 0.02 0.01 0.02 0.02 0.01 0.01 0.01 0.02 0.02
0.00 0.00 0.00 0.00 0.00 0.00 0.00 0.00 0.00 0.01 0.01 0.01 0.01 0.01 0.01 0.01 0.01 0.01 0.00 0.01 0.01 0.01 0.01 0.01 0.01 0.01 0.00 0.01 0.01 0.00 0.01 0.01 0.02 0.02 0.02 0.02 0.02 0.02 0.02 0.01 0.01 0.02 0.03 0.03
0.00 0.00 0.00 0.00 0.00 0.00 0.00 0.00 0.00 0.01 0.01 0.01 0.01 0.01 0.02 0.02 0.01 0.01 0.00 0.00 0.00 0.01 0.02 0.02 0.01 0.01 0.01 0.01 0.00 0.00 0.01 0.01 0.02 0.02 0.02 0.01 0.01 0.01 0.01 0.02 0.02 0.02 0.03 0.03
0.00 0.00 0.00 0.00 0.00 0.00 0.01 0.01 0.00 0.00 0.01 0.01 0.00 0.01 0.01 0.01 0.01 0.00 0.00 0.00 0.00 0.01 0.02 0.02 0.01 0.00 0.01 0.01 0.01 0.01 0.01 0.01 0.02 0.02 0.02 0.02 0.01 0.01 0.02 0.02 0.02 0.03 0.04 0.04
0.00 0.00 0.00 0.00 0.01 0.00 0.00 0.01 0.00 0.01 0.01 0.01 0.01 0.01 0.01 0.00 0.00 0.00 0.00 0.00 0.01 0.02 0.02 0.01 0.01 0.01 0.01 0.01 0.01 0.01 0.01 0.01 0.02 0.02 0.02 0.02 0.01 0.02 0.02 0.02 0.03 0.03 0.03 0.03
0.00 0.00 0.00 0.01 0.00 0.00 0.01 0.01 0.00 0.01 0.00 0.01 0.01 0.01 0.01 0.01 0.01 0.00 0.00 0.00 0.01 0.01 0.01 0.01 0.01 0.01 0.01 0.01 0.01 0.01 0.01 0.01 0.01 0.02 0.02 0.02 0.02 0.02 0.02 0.03 0.03 0.03 0.03 0.03
0.00 0.00 0.00 0.00 0.00 0.00 0.00 0.00 0.01 0.01 0.00 0.00 0.00 0.00 0.00 0.01 0.01 0.00 0.01 0.01 0.01 0.01 0.01 0.01 0.01 0.02 0.01 0.01 0.01 0.01 0.01 0.01 0.01 0.02 0.02 0.01 0.02 0.02 0.02 0.02 0.02 0.02 0.02 0.02
0.00 0.00 0.00 0.00 0.00 0.00 0.00 0.00 0.00 0.00 0.00 0.00 0.00 0.00 0.00 0.01 0.01 0.02 0.02 0.02 0.01 0.01 0.01 0.02 0.02 0.01 0.01 0.01 0.01 0.01 0.01 0.01 0.02 0.01 0.01 0.02 0.02 0.02 0.02 0.02 0.02 0.02 0.02 0.03
0.00 0.00 0.00 0.00 0.00 0.00 0.00 0.00 0.00 0.00 0.00 0.00 0.00 0.00 0.00 0.01 0.02 0.02 0.03 0.03 0.02 0.02 0.02 0.03 0.02 0.01 0.01 0.01 0.01 0.01 0.01 0.01 0.01 0.01 0.01 0.01 0.01 0.02 0.02 0.02 0.02 0.02 0.03 0.03
0.00 0.00 0.00 0.00 0.00 0.00 0.00 0.00 0.00 0.00 0.00 0.00 0.00 0.00 0.01 0.01 0.02 0.01 0.02 0.03 0.03 0.03 0.02 0.01 0.01 0.01 0.01 0.01 0.02 0.02 0.01 0.01 0.01 0.01 0.01 0.01 0.01 0.02 0.02 0.02 0.02 0.02 0.03 0.04
0.00 0.00 0.00 0.00 0.00 0.01 0.01 0.01 0.00 0.00 0.01 0.01 0.01 0.01 0.01 0.01 0.01 0.01 0.01 0.02 0.02 0.03 0.03 0.02 0.02 0.02 0.01 0.01 0.01 0.02 0.02 0.02 0.01 0.02 0.01 0.01 0.02 0.02 0.02 0.02 0.03 0.03 0.04 0.04
0.00 0.00 0.00 0.01 0.01 0.01 0.01 0.01 0.00 0.00 0.01 0.01 0.02 0.02 0.02 0.01 0.01 0.01 0.01 0.01 0.03 0.03 0.04 0.02 0.01 0.01 0.01 0.01 0.01 0.02 0.02 0.02 0.02 0.02 0.01 0.01 0.02 0.02 0.02 0.02 0.02 0.03 0.03 0.03
0.00 0.01 0.01 0.01 0.01 0.01 0.01 0.00 0.01 0.01 0.01 0.01 0.01 0.02 0.02 0.02 0.01 0.01 0.01 0.01 0.02 0.02 0.03 0.03 0.02 0.01 0.01 0.02 0.02 0.03 0.03 0.03 0.02 0.02 0.02 0.01 0.02 0.02 0.02 0.02 0.02 0.02 0.03 0.03
0.01 0.01 0.01 0.01 0.01 0.01 0.01 0.01 0.00 0.01 0.01 0.01 0.01 0.02 0.02 0.02 0.01 0.01 0.01 0.02 0.02 0.02 0.03 0.03 0.03 0.02 0.03 0.03 0.04 0.04 0.04 0.05 0.04 0.03 0.03 0.02 0.02 0.02 0.02 0.02 0.03 0.03 0.02 0.03
0.01 0.01 0.01 0.01 0.01 0.01 0.01 0.01 0.01 0.01 0.01 0.01 0.01 0.02 0.02 0.02 0.02 0.03 0.03 0.03 0.02 0.03 0.03 0.03 0.03 0.03 0.04 0.05 0.05 0.05 0.06 0.06 0.04 0.04 0.03 0.03 0.03 0.04 0.04 0.03 0.03 0.03 0.03 0.03
0.01 0.01 0.01 0.02 0.02 0.02 0.02 0.02 0.02 0.02 0.02 0.02 0.02 0.02 0.02 0.03 0.02 0.03 0.03 0.03 0.03 0.03 0.03 0.04 0.04 0.03 0.04 0.05 0.06 0.05 0.06 0.05 0.05 0.05 0.05 0.05 0.05 0.05 0.04 0.04 0.04 0.03 0.03 0.03
0.01 0.01 0.01 0.01 0.03 0.04 0.03 0.03 0.04 0.04 0.03 0.02 0.02 0.02 0.02 0.02 0.02 0.01 0.02 0.03 0.03 0.03 0.03 0.04 0.04 0.04 0.04 0.05 0.05 0.06 0.08 0.09 0.09 0.09 0.09 0.09 0.09 0.09 0.07 0.06 0.05 0.04 0.03 0.04
0.01 0.01 0.01 0.01 0.02 0.04 0.04 0.04 0.04 0.06 0.06 0.05 0.04 0.04 0.04 0.03 0.03 0.02 0.02 0.02 0.02 0.03 0.03 0.04 0.04 0.05 0.05 0.06 0.06 0.06 0.08 0.10 0.12 0.14 0.13 0.12 0.12 0.11 0.10 0.08 0.06 0.05 0.04 0.04
0.00 0.01 0.01 0.01 0.01 0.03 0.04 0.04 0.04 0.04 0.06 0.06 0.05 0.04 0.03 0.04 0.05 0.04 0.03 0.03 0.02 0.03 0.03 0.04 0.04 0.04 0.06 0.07 0.07 0.05 0.06 0.08 0.10 0.10 0.09 0.08 0.08 0.08 0.06 0.05 0.06 0.08 0.08 0.06
0.00 0.00 0.01 0.01 0.01 0.02 0.03 0.04 0.04 0.04 0.04 0.04 0.05 0.05 0.04 0.06 0.07 0.04 0.04 0.04 0.03 0.04 0.03 0.04 0.04 0.05 0.05 0.05 0.05 0.06 0.06 0.06 0.06 0.05 0.05 0.05 0.05 0.05 0.04 0.03 0.03 0.04 0.04 0.04
0.00 0.01 0.01 0.01 0.01 0.01 0.02 0.02 0.03 0.03 0.03 0.04 0.05 0.05 0.05 0.06 0.05 0.03 0.04 0.04 0.04 0.05 0.04 0.04 0.04 0.05 0.04 0.03 0.03 0.03 0.02 0.02 0.02 0.02 0.02 0.02 0.03 0.03 0.03 0.03 0.03 0.03 0.03 0.02
0.01 0.01 0.01 0.01 0.01 0.01 0.01 0.02 0.02 0.03 0.03 0.03 0.04 0.04 0.04 0.06 0.04 0.03 0.03 0.03 0.04 0.04 0.05 0.07 0.08 0.07 0.05 0.03 0.02 0.02 0.01 0.01 0.01 0.01 0.01 0.01 0.01 0.01 0.02 0.02 0.02 0.02 0.01 0.01
0.02 0.01 0.01 0.01 0.01 0.01 0.02 0.03 0.03 0.02 0.02 0.02 0.03 0.03 0.03 0.04 0.03 0.03 0.02 0.02 0.02 0.02 0.03 0.04 0.04 0.04 0.03 0.01 0.02 0.02 0.01 0.01 0.01 0.01 0.01 0.00 0.01 0.01 0.01 0.01 0.01 0.02 0.01 0.01
0.02 0.02 0.02 0.02 0.02 0.02 0.02 0.02 0.02 0.03 0.03 0.03 0.03 0.03 0.03 0.02 0.02 0.01 0.01 0.01 0.03 0.02 0.02 0.01 0.02 0.02 0.01 0.01 0.01 0.01 0.01 0.01 0.00 0.00 0.00 0.01 0.01 0.01 0.01 0.01 0.01 0.01 0.02 0.02
0.04 0.03 0.02 0.02 0.02 0.02 0.02 0.02 0.02 0.03 0.03 0.03 0.02 0.03 0.03 0.02 0.02 0.01 0.01 0.01 0.01 0.02 0.02 0.01 0.02 0.01 0.01 0.01 0.01 0.01 0.01 0.01 0.01 0.01 0.01 0.01 0.01 0.01 0.01 0.01 0.01 0.01 0.01 0.01
0.03 0.03 0.03 0.03 0.03 0.02 0.02 0.02 0.02 0.02 0.03 0.03 0.03 0.03 0.02 0.02 0.01 0.01 0.01 0.01 0.01 0.02 0.02 0.02 0.02 0.01 0.01 0.01 0.00 0.00 0.01 0.01 0.00 0.00 0.00 0.00 0.00 0.00 0.00 0.00 0.00 0.01 0.01 0.01
MSLP
1012.82 1012.80 1012.80 1012.84 1012.93 1013.03 1013.14 1013.22 1013.23 1013.14 1012.93 1012.61 1012.16 1011.62 1011.01 1010.37 1009.72 1009.10 1008.53 1008.02 1007.56 1007.16 1006.82 1006.51 1006.25 1006.02 1005.83 1005.69 1005.60 1005.56 1005.58 1005.65 1005.77 1005.92 1006.10 1006.29 1006.48 1006.65 1006.80 1006.93 1007.04 1007.15 1007.25 1007.37
1013.19 1013.22 1013.23 1013.25 1013.27 1013.29 1013.30 1013.27 1013.20 1013.05 1012.83 1012.52 1012.12 1011.65 1011.12 1010.55 1009.96 1009.38 1008.81 1008.27 1007.76 1007.28 1006.83 1006.40 1006.01 1005.65 1005.32 1005.05 1004.83 1004.69 1004.61 1004.62 1004.69 1004.82 1004.99 1005.19 1005.39 1005.59 1005.77 1005.92 1006.04 1006.14 1006.24 1006.36
1013.52 1013.60 1013.63 1013.63 1013.60 1013.55 1013.46 1013.35 1013.19 1013.00 1012.75 1012.45 1012.09 1011.68 1011.21 1010.71 1010.19 1009.64 1009.09 1008.53 1007.97 1007.42 1006.87 1006.33 1005.81 1005.31 1004.85 1004.44 1004.09 1003.82 1003.64 1003.54 1003.54 1003.61 1003.75 1003.93 1004.14 1004.34 1004.54 1004.71 1004.86 1004.98 1005.11 1005.24
1013.78 1013.89 1013.94 1013.93 1013.86 1013.74 1013.58 1013.39 1013.18 1012.94 1012.68 1012.39 1012.06 1011.70 1011.30 1010.86 1010.38 1009.87 1009.33 1008.77 1008.17 1007.56 1006.94 1006.31 1005.68 1005.06 1004.47 1003.93 1003.45 1003.05 1002.74 1002.54 1002.43 1002.42 1002.50 1002.64 1002.82 1003.02 1003.22 1003.42 1003.59 1003.76 1003.93 1004.11
1013.93 1014.06 1014.10 1014.07 1013.96 1013.79 1013.58 1013.35 1013.10 1012.84 1012.57 1012.30 1012.01 1011.70 1011.36 1010.97 1010.54 1010.07 1009.54 1008.97 1008.36 1007.71 1007.03 1006.32 1005.61 1004.90 1004.21 1003.56 1002.96 1002.45 1002.02 1001.70 1001.49 1001.38 1001.38 1001.45 1001.59 1001.77 1001.97 1002.18 1002.39 1002.60 1002.82 1003.08
1013.97 1014.08 1014.09 1014.02 1013.87 1013.67 1013.42 1013.16 1012.89 1012.64 1012.39 1012.15 1011.91 1011.65 1011.35 1011.02 1010.63 1010.19 1009.68 1009.11 1008.49 1007.82 1007.11 1006.37 1005.61 1004.84 1004.08 1003.35 1002.67 1002.05 1001.52 1001.10 1000.78 1000.58 1000.49 1000.49 1000.58 1000.73 1000.92 1001.14 1001.38 1001.64 1001.92 1002.25
1013.90 1013.94 1013.91 1013.78 1013.59 1013.35 1013.09 1012.82 1012.56 1012.33 1012.11 1011.92 1011.72 1011.51 1011.27 1010.98 1010.63 1010.21 1009.72 1009.17 1008.55 1007.88 1007.16 1006.40 1005.63 1004.83 1004.04 1003.27 1002.53 1001.85 1001.25 1000.74 1000.33 1000.04 999.87 999.81 999.85 999.97 1000.15 1000.39 1000.66 1000.96 1001.31 1001.69
1013.74 1013.71 1013.59 1013.41 1013.17 1012.90 1012.62 1012.36 1012.12 1011.91 1011.74 1011.59 1011.45 1011.29 1011.09 1010.83 1010.51 1010.12 1009.65 1009.11 1008.51 1007.85 1007.14 1006.40 1005.63 1004.84 1004.04 1003.26 1002.50 1001.78 1001.13 1000.56 1000.09 999.74 999.50 999.39 999.39 999.49 999.67 999.93 1000.23 1000.59 1000.99 1001.43
1013.56 1013.43 1013.23 1012.98 1012.69 1012.39 1012.10 1011.84 1011.62 1011.45 1011.32 1011.21 1011.11 1010.98 1010.81 1010.58 1010.28 1009.91 1009.46 1008.94 1008.35 1007.71 1007.03 1006.32 1005.57 1004.80 1004.03 1003.25 1002.48 1001.75 1001.07 1000.46 999.95 999.55 999.28 999.14 999.12 999.22 999.42 999.70 1000.05 1000.46 1000.91 1001.41
1013.43 1013.20 1012.92 1012.60 1012.26 1011.92 1011.62 1011.36 1011.16 1011.01 1010.90 1010.81 1010.72 1010.61 1010.46 1010.24 1009.95 1009.59 1009.15 1008.65 1008.09 1007.48 1006.83 1006.14 1005.43 1004.69 1003.93 1003.17 1002.40 1001.66 1000.96 1000.33 999.80 999.37 999.08 998.93 998.92 999.03 999.26 999.59 1000.00 1000.47 1000.97 1001.51
1013.40 1013.10 1012.74 1012.36 1011.97 1011.60 1011.28 1011.01 1010.79 1010.64 1010.52 1010.43 1010.34 1010.22 1010.05 1009.83 1009.54 1009.18 1008.76 1008.27 1007.74 1007.16 1006.54 1005.89 1005.21 1004.49 1003.75 1002.98 1002.21 1001.46 1000.74 1000.09 999.53 999.09 998.79 998.65 998.65 998.80 999.08 999.47 999.94 1000.47 1001.04 1001.62
1013.52 1013.17 1012.76 1012.33 1011.89 1011.49 1011.13 1010.82 1010.57 1010.38 1010.23 1010.10 1009.97 1009.81 1009.62 1009.38 1009.08 1008.72 1008.31 1007.85 1007.34 1006.80 1006.21 1005.59 1004.93 1004.22 1003.48 1002.70 1001.91 1001.13 1000.38 999.70 999.12 998.66 998.36 998.22 998.25 998.45 998.78 999.23 999.77 1000.37 1001.00 1001.63
1013.79 1013.40 1012.96 1012.49 1012.02 1011.57 1011.16 1010.80 1010.49 1010.23 1010.02 1009.82 1009.62 1009.41 1009.18 1008.90 1008.59 1008.24 1007.84 1007.41 1006.94 1006.43 1005.88 1005.28 1004.63 1003.93 1003.17 1002.37 1001.55 1000.72 999.93 999.21 998.59 998.12 997.81 997.68 997.74 997.97 998.36 998.87 999.47 1000.13 1000.80 1001.47
1014.16 1013.76 1013.30 1012.80 1012.29 1011.79 1011.32 1010.89 1010.50 1010.16 1009.85 1009.56 1009.29 1009.01 1008.72 1008.41 1008.08 1007.74 1007.36 1006.97 1006.54 1006.08 1005.57 1005.00 1004.36 1003.66 1002.89 1002.05 1001.19 1000.32 999.48 998.71 998.06 997.56 997.24 997.11 997.18 997.44 997.87 998.42 999.07 999.77 1000.49 1001.19
1014.57 1014.16 1013.68 1013.16 1012.61 1012.06 1011.52 1011.02 1010.54 1010.10 1009.69 1009.31 1008.94 1008.58 1008.24 1007.89 1007.56 1007.22 1006.88 1006.53 1006.16 1005.75 1005.29 1004.76 1004.14 1003.45 1002.67 1001.81 1000.92 1000.01 999.13 998.32 997.64 997.11 996.78 996.65 996.73 997.00 997.44 998.01 998.68 999.40 1000.13 1000.85
1014.92 1014.51 1014.02 1013.47 1012.89 1012.29 1011.69 1011.11 1010.55 1010.01 1009.50 1009.02 1008.56 1008.13 1007.73 1007.36 1007.02 1006.70 1006.39 1006.09 1005.78 1005.43 1005.03 1004.55 1003.97 1003.30 1002.54 1001.69 1000.78 999.86 998.97 998.15 997.45 996.91 996.57 996.43 996.50 996.77 997.20 997.77 998.43 999.13 999.85 1000.55
1015.14 1014.72 1014.22 1013.66 1013.05 1012.41 1011.77 1011.12 1010.49 1009.87 1009.27 1008.70 1008.16 1007.67 1007.22 1006.82 1006.47 1006.17 1005.90 1005.65 1005.40 1005.11 1004.77 1004.35 1003.84 1003.22 1002.50 1001.69 1000.82 999.92 999.05 998.25 997.57 997.04 996.70 996.56 996.62 996.87 997.27 997.80 998.41 999.08 999.75 1000.41
1015.18 1014.76 1014.25 1013.68 1013.06 1012.41 1011.73 1011.04 1010.36 1009.68 1009.02 1008.38 1007.78 1007.24 1006.75 1006.32 1005.96 1005.67 1005.42 1005.21 1005.01 1004.79 1004.52 1004.17 1003.73 1003.19 1002.54 1001.80 1001.00 1000.18 999.38 998.64 998.01 997.52 997.20 997.07 997.12 997.33 997.69 998.16 998.70 999.29 999.89 1000.47
1015.03 1014.60 1014.10 1013.54 1012.93 1012.28 1011.60 1010.91 1010.20 1009.50 1008.80 1008.12 1007.48 1006.89 1006.37 1005.91 1005.54 1005.24 1005.00 1004.81 1004.65 1004.48 1004.27 1003.99 1003.64 1003.19 1002.64 1002.01 1001.33 1000.62 999.92 999.28 998.73 998.31 998.04 997.92 997.96 998.14 998.44 998.83 999.29 999.78 1000.28 1000.77
1014.71 1014.29 1013.81 1013.28 1012.70 1012.09 1011.44 1010.77 1010.08 1009.38 1008.68 1007.98 1007.32 1006.70 1006.15 1005.66 1005.26 1004.94 1004.70 1004.52 1004.37 1004.22 1004.06 1003.86 1003.58 1003.23 1002.80 1002.30 1001.75 1001.17 1000.61 1000.09 999.65 999.31 999.09 999.00 999.04 999.19 999.43 999.74 1000.09 1000.47 1000.86 1001.25
1014.29 1013.89 1013.44 1012.96 1012.44 1011.89 1011.30 1010.69 1010.04 1009.37 1008.68 1008.00 1007.33 1006.70 1006.12 1005.61 1005.18 1004.83 1004.56 1004.36 1004.21 1004.09 1003.96 1003.80 1003.60 1003.35 1003.03 1002.65 1002.24 1001.80 1001.37 1000.98 1000.65 1000.40 1000.25 1000.19 1000.22 1000.34 1000.52 1000.75 1001.01 1001.28 1001.56 1001.85
1013.80 1013.44 1013.05 1012.63 1012.19 1011.72 1011.21 1010.67 1010.08 1009.47 1008.82 1008.16 1007.50 1006.87 1006.28 1005.75 1005.29 1004.91 1004.62 1004.40 1004.24 1004.11 1004.00 1003.88 1003.74 1003.56 1003.33 1003.07 1002.77 1002.46 1002.16 1001.88 1001.65 1001.48 1001.37 1001.34 1001.38 1001.46 1001.59 1001.75 1001.93 1002.11 1002.29 1002.49
1013.30 1012.99 1012.66 1012.32 1011.96 1011.58 1011.15 1010.69 1010.18 1009.63 1009.03 1008.42 1007.79 1007.17 1006.58 1006.04 1005.57 1005.17 1004.86 1004.62 1004.44 1004.31 1004.21 1004.11 1004.01 1003.88 1003.73 1003.54 1003.34 1003.12 1002.91 1002.72 1002.56 1002.44 1002.38 1002.36 1002.39 1002.46 1002.55 1002.65 1002.76 1002.87 1002.99 1003.12
1012.81 1012.56 1012.30 1012.03 1011.75 1011.44 1011.09 1010.70 1010.26 1009.77 1009.24 1008.67 1008.08 1007.49 1006.92 1006.40 1005.93 1005.54 1005.22 1004.97 1004.79 1004.66 1004.56 1004.48 1004.40 1004.31 1004.19 1004.06 1003.91 1003.75 1003.59 1003.45 1003.33 1003.24 1003.20 1003.19 1003.21 1003.26 1003.32 1003.39 1003.47 1003.54 1003.62 1003.70
1012.36 1012.15 1011.94 1011.73 1011.50 1011.25 1010.96 1010.63 1010.25 1009.81 1009.33 1008.81 1008.27 1007.72 1007.20 1006.71 1006.27 1005.90 1005.60 1005.37 1005.20 1005.08 1005.00 1004.93 1004.86 1004.78 1004.69 1004.57 1004.44 1004.30 1004.16 1004.04 1003.93 1003.86 1003.81 1003.80 1003.82 1003.86 1003.91 1003.97 1004.04 1004.11 1004.18 1004.26
1011.93 1011.75 1011.57 1011.39 1011.19 1010.97 1010.71 1010.41 1010.07 1009.67 1009.23 1008.76 1008.27 1007.78 1007.31 1006.88 1006.49 1006.17 1005.91 1005.72 1005.58 1005.48 1005.42 1005.36 1005.30 1005.23 1005.14 1005.02 1004.89 1004.75 1004.60 1004.47 1004.36 1004.27 1004.22 1004.21 1004.23 1004.28 1004.34 1004.42 1004.51 1004.60 1004.70 1004.80
1011.51 1011.33 1011.16 1010.98 1010.78 1010.56 1010.31 1010.01 1009.68 1009.31 1008.91 1008.48 1008.04 1007.61 1007.20 1006.83 1006.52 1006.26 1006.06 1005.92 1005.82 1005.76 1005.72 1005.68 1005.63 1005.56 1005.46 1005.34 1005.19 1005.04 1004.88 1004.73 1004.61 1004.52 1004.47 1004.46 1004.50 1004.57 1004.66 1004.78 1004.91 1005.06 1005.20 1005.36
Thickness
5795 5801 5800 5795 5794 5796 5793 5794 5790 5794 5797 5801 5802 5800 5800 5800 5799 5797 5794 5792 5789 5786 5785 5783 5781 5779 5777 5775 5773 5770 5765 5762 5759 5757 5754 5750 5747 5744 5740 5737 5736 5733 5729 5727
5781 5791 5791 5786 5790 5791 5789 5790 5790 5790 5790 5800 5800 5798 5792 5791 5789 5787 5786 5785 5784 5782 5779 5777 5775 5773 5770 5768 5766 5763 5760 5756 5754 5752 5748 5744 5741 5738 5734 5732 5729 5726 5723 5720
5771 5781 5778 5770 5782 5784 5784 5788 5786 5780 5784 5789 5786 5784 5782 5781 5781 5780 5780 5779 5778 5777 5775 5773 5771 5768 5764 5763 5761 5757 5752 5750 5748 5745 5741 5738 5736 5732 5729 5725 5722 5718 5716 5714
5768 5761 5744 5774 5792 5787 5781 5782 5785 5783 5783 5781 5780 5782 5782 5780 5776 5774 5774 5774 5773 5773 5771 5770 5767 5764 5761 5759 5754 5750 5747 5744 5742 5739 5735 5731 5728 5725 5722 5719 5715 5712 5709 5707
5759 5753 5759 5768 5777 5777 5770 5768 5778 5775 5774 5775 5777 5775 5773 5774 5772 5770 5769 5769 5769 5768 5767 5764 5761 5758 5754 5751 5748 5744 5741 5738 5735 5733 5728 5725 5721 5717 5715 5711 5708 5705 5702 5699
5750 5743 5743 5761 5775 5779 5768 5754 5770 5770 5766 5765 5765 5759 5760 5764 5764 5763 5763 5762 5762 5762 5760 5755 5753 5750 5746 5742 5740 5736 5734 5731 5728 5725 5721 5718 5714 5710 5708 5704 5700 5698 5694 5692
5742 5741 5753 5764 5769 5766 5743 5748 5762 5763 5760 5758 5754 5755 5756 5758 5756 5755 5754 5753 5753 5752 5749 5746 5744 5741 5736 5733 5730 5729 5727 5723 5720 5717 5714 5711 5706 5701 5699 5696 5692 5689 5686 5684
5737 5732 5740 5757 5758 5749 5746 5754 5755 5754 5755 5752 5750 5750 5749 5747 5746 5746 5745 5744 5743 5741 5739 5737 5735 5731 5727 5723 5722 5721 5718 5714 5711 5708 5705 5703 5697 5693 5690 5687 5684 5681 5678 5676
5736 5736 5742 5750 5748 5748 5749 5746 5746 5746 5746 5744 5742 5739 5738 5737 5736 5735 5735 5734 5734 5732 5729 5727 5725 5722 5717 5715 5713 5710 5707 5704 5701 5698 5695 5693 5689 5685 5682 5679 5678 5675 5671 5668
5724 5731 5736 5738 5740 5740 5741 5739 5740 5739 5738 5736 5732 5731 5729 5727 5726 5725 5725 5724 5723 5722 5719 5716 5714 5712 5709 5706 5703 5700 5697 5694 5692 5689 5686 5683 5680 5678 5674 5672 5669 5666 5663 5659
5713 5720 5724 5728 5730 5730 5731 5732 5731 5730 5729 5727 5724 5722 5720 5718 5716 5716 5716 5715 5713 5711 5708 5706 5704 5702 5700 5697 5694 5691 5688 5685 5683 5681 5678 5673 5671 5668 5665 5661 5657 5654 5653 5650
5708 5712 5713 5716 5721 5723 5721 5720 5720 5719 5717 5717 5716 5713 5712 5710 5709 5708 5707 5705 5703 5702 5700 5697 5694 5692 5689 5687 5685 5681 5679 5676 5675 5673 5669 5666 5663 5660 5655 5651 5646 5642 5638 5635
5704 5708 5710 5712 5713 5714 5713 5713 5713 5711 5710 5708 5707 5706 5703 5701 5700 5699 5698 5696 5694 5692 5690 5688 5686 5683 5681 5678 5675 5672 5670 5668 5667 5665 5662 5658 5655 5652 5648 5643 5638 5634 5629 5625
5696 5696 5695 5700 5702 5705 5705 5706 5705 5704 5703 5701 5699 5697 5695 5692 5691 5690 5688 5687 5686 5684 5682 5680 5677 5674 5672 5670 5666 5664 5662 5661 5658 5656 5654 5651 5648 5645 5643 5639 5635 5631 5624 5618
5687 5689 5690 5693 5695 5696 5697 5697 5695 5695 5694 5692 5691 5689 5687 5685 5683 5682 5681 5680 5677 5675 5673 5670 5668 5666 5665 5663 5659 5657 5655 5654 5651 5649 5647 5644 5642 5639 5636 5632 5628 5625 5622 5616
5679 5682 5683 5683 5684 5685 5687 5687 5686 5685 5685 5683 5681 5680 5679 5678 5676 5675 5673 5671 5668 5666 5663 5661 5659 5659 5658 5655 5652 5650 5647 5644 5641 5641 5640 5637 5635 5632 5628 5625 5621 5618 5616 5612
5669 5670 5672 5673 5674 5676 5677 5677 5677 5676 5675 5673 5672 5672 5670 5669 5667 5666 5665 5663 5660 5657 5655 5653 5651 5651 5650 5647 5645 5643 5641 5638 5633 5634 5633 5630 5627 5624 5620 5617 5614 5611 5608 5605
5666 5668 5668 5667 5668 5668 5668 5668 5668 5666 5664 5664 5664 5662 5661 5659 5658 5657 5656 5654 5651 5649 5648 5647 5644 5643 5642 5640 5637 5636 5634 5632 5630 5627 5625 5623 5619 5616 5613 5610 5607 5604 5601 5599
5659 5660 5660 5661 5661 5660 5659 5659 5659 5658 5656 5655 5653 5652 5651 5650 5650 5648 5647 5645 5642 5640 5639 5639 5634 5634 5634 5632 5629 5628 5626 5624 5622 5620 5617 5612 5611 5608 5606 5603 5601 5598 5596 5593
5651 5652 5652 5651 5652 5651 5651 5650 5650 5648 5647 5647 5645 5643 5641 5641 5640 5640 5638 5637 5635 5633 5631 5630 5629 5628 5626 5624 5621 5622 5620 5618 5615 5613 5609 5606 5604 5601 5599 5597 5595 5593 5590 5587
5643 5643 5642 5642 5642 5642 5643 5642 5641 5640 5639 5639 5636 5635 5633 5632 5631 5631 5630 5630 5627 5624 5623 5620 5621 5620 5618 5616 5614 5615 5612 5610 5608 5605 5603 5601 5598 5596 5593 5591 5589 5586 5584 5581
5634 5634 5634 5634 5634 5633 5634 5634 5633 5632 5631 5630 5629 5628 5627 5625 5625 5624 5623 5621 5619 5614 5615 5615 5614 5609 5608 5606 5609 5608 5605 5602 5600 5598 5596 5594 5591 5589 5586 5584 5582 5580 5578 5576
5628 5627 5626 5626 5626 5626 5626 5626 5625 5625 5623 5622 5622 5621 5621 5619 5620 5618 5616 5614 5612 5607 5608 5606 5601 5598 5596 5601 5602 5600 5598 5595 5594 5591 5589 5586 5583 5581 5579 5578 5576 5574 5571 5569
5621 5621 5621 5621 5620 5619 5618 5619 5618 5617 5616 5616 5615 5614 5613 5612 5612 5613 5611 5605 5601 5599 5601 5595 5592 5590 5590 5595 5594 5592 5591 5589 5587 5585 5583 5581 5578 5576 5573 5571 5569 5567 5564 5562
5616 5616 5615 5614 5614 5614 5613 5612 5611 5610 5610 5610 5609 5608 5608 5608 5606 5605 5602 5600 5595 5593 5594 5590 5586 5585 5587 5589 5587 5585 5584 5582 5580 5578 5576 5574 5571 5569 5566 5563 5561 5559 5556 5555
5609 5610 5610 5608 5609 5608 5608 5607 5606 5604 5604 5602 5602 5602 5601 5600 5599 5598 5596 5594 5592 5588 5587 5586 5585 5582 5583 5582 5580 5578 5576 5575 5573 5571 5569 5566 5563 5561 5559 5556 5553 5551 5549 5547
5604 5604 5602 5602 5602 5602 5602 5600 5599 5598 5597 5596 5595 5595 5594 5593 5593 5592 5590 5589 5587 5585 5583 5582 5580 5579 5577 5575 5573 5572 5569 5567 5565 5563 5561 5558 5556 5553 5552 5549 5547 5545 5542 5541